Location: Middle Street
(51.7167°N, 0.0333°E)
Time: 02:10:25
(UTC+00:00)

Meteor 2-5 Rocket - Pass Details

Date: 20 January 2021
Orbit: 833 x 911 km, 81.2° (Epoch: 24 February)

Event Time Altitude Azimuth Distance (km) Brightness Sun altitude
Rises 17:07:07 0° 174° (S) 3,398 7.1 -6.2°
Reaches altitude 10° 17:09:35 10° 170° (S) 2,458 6.3 -6.5°
Maximum altitude 17:14:57 52° 95° (E) 1,041 3.9 -7.3°
Drops below altitude 10° 17:20:18 10° 21° (NNE) 2,456 5.7 -8.1°
Sets 17:22:46 0° 17° (NNE) 3,395 6.5 -8.4°
